Ridgedale, MO

6:26 AM CST on February 19, 2017 (GMT -0600)
Branson

Weather History for KBBG - February, 2013

Change the Weather History Date:

Monday, February 18, 2013

  Actual Average (KHRO) Record (KHRO)
Temperature  
Mean Temperature 44 °F -  
Max Temperature 57 °F 51 °F 75 °F (1986)
Min Temperature 32 °F 30 °F -7 °F (1910)
Degree Days  
Heating Degree Days 20    
Moisture  
Dew Point 34 °F    
Average Humidity 62    
Maximum Humidity 82    
Minimum Humidity 41    
Precipitation  
Precipitation 0.00 in - - ()
Sea Level Pressure  
Sea Level Pressure 29.86 in    
Wind  
Wind Speed 12 mph (SW)    
Max Wind Speed 22 mph    
Max Gust Speed 31 mph    
Visibility 10 miles    
Events Rain , Thunderstorm    
Averages and records for this station are not official NWS values.
T = Trace of Precipitation, MM = Missing Value Source: NWS Daily Summary

Daily Weather History Graph

Daily Weather History Graph

Search for Another Location

Airport or City:

Trip Planner

Search our weather history database for the weather conditions in past years. The results will help you decide how hot, cold, wet, or windy it might be!

Date:

Astronomy

Feb. 18, 2013 Rise Set
Actual Time 6:56 AM CST 5:56 PM CST
Civil Twilight 6:30 AM CST 6:23 PM CST
Nautical Twilight 6:00 AM CST 6:53 PM CST
Astronomical Twilight 5:30 AM CST 7:23 PM CST
Moon 11:47 AM CST (2/18) 1:32 AM CST (2/18)
Length of Visible Light 11h 52m
Length of Day
10h 59m
First Quarter, 58% of the Moon is Illuminated
Feb 18
First Quarter
Feb 25
Full
Mar 4
Last Quarter
Mar 11
New
Mar 19
First Quarter

Hourly Weather History & Observations

Time (CST) Temp. Windchill Dew Point Humidity Pressure Visibility Wind Dir Wind Speed Gust Speed Precip Events Conditions
12:15 AM 53.6 °F - 30.2 °F 41% 29.86 in 10.0 mi South 9.2 mph - N/A   Clear
12:55 AM 51.8 °F - 30.2 °F 44% 29.85 in 10.0 mi South 8.1 mph - N/A   Clear
1:15 AM 53.6 °F - 30.2 °F 41% 29.84 in 10.0 mi South 9.2 mph 18.4 mph N/A   Clear
1:35 AM 53.6 °F - 30.2 °F 41% 29.84 in 10.0 mi South 11.5 mph 19.6 mph N/A   Clear
1:55 AM 53.6 °F - 32.0 °F 44% 29.84 in 10.0 mi South 12.7 mph 20.7 mph N/A   Clear
2:15 AM 53.6 °F - 32.0 °F 44% 29.84 in 10.0 mi South 12.7 mph 23.0 mph N/A   Clear
2:35 AM 53.6 °F - 32.0 °F 44% 29.83 in 10.0 mi South 13.8 mph 21.9 mph N/A   Clear
2:55 AM 53.6 °F - 32.0 °F 44% 29.83 in 10.0 mi South 12.7 mph 23.0 mph N/A   Clear
3:15 AM 53.6 °F - 32.0 °F 44% 29.82 in 10.0 mi South 11.5 mph 20.7 mph N/A   Clear
3:35 AM 53.6 °F - 33.8 °F 47% 29.81 in 10.0 mi South 8.1 mph 20.7 mph N/A   Clear
3:55 AM 51.8 °F - 35.6 °F 54% 29.81 in 10.0 mi South 11.5 mph 24.2 mph N/A   Clear
4:15 AM 51.8 °F - 35.6 °F 54% 29.80 in 10.0 mi South 10.4 mph 23.0 mph N/A   Clear
4:35 AM 51.8 °F - 37.4 °F 58% 29.80 in 10.0 mi South 11.5 mph 20.7 mph N/A   Clear
5:15 AM 51.8 °F - 37.4 °F 58% 29.80 in 10.0 mi South 11.5 mph 16.1 mph N/A   Scattered Clouds
6:54 AM 51.8 °F - 41.0 °F 67% 29.77 in 10.0 mi SSE 13.8 mph 19.6 mph N/A   Overcast
7:50 AM 53.6 °F - 41.0 °F 62% 29.76 in 10.0 mi South 20.7 mph 29.9 mph N/A   Overcast
8:56 AM 53.6 °F - 44.6 °F 72% 29.77 in 10.0 mi South 17.3 mph 28.8 mph N/A   Overcast
9:50 AM 53.6 °F - 44.6 °F 72% 29.75 in 10.0 mi South 16.1 mph 27.6 mph N/A   Overcast
10:59 AM 55.4 °F - 46.4 °F 72% 29.72 in 10.0 mi South 17.3 mph 31.1 mph N/A   Overcast
11:45 AM 55.4 °F - 46.4 °F 72% 29.71 in 10.0 mi South 16.1 mph 25.3 mph N/A   Overcast
12:50 PM 53.6 °F - 46.4 °F 77% 29.67 in 10.0 mi South 17.3 mph 27.6 mph N/A   Overcast
1:50 PM 57.2 °F - 48.2 °F 72% 29.63 in 10.0 mi South 12.7 mph 21.9 mph N/A   Overcast
2:45 PM 55.4 °F - 50.0 °F 82% 29.61 in 4.0 mi South 9.2 mph 19.6 mph N/A Rain , Thunderstorm Light Thunderstorms and Rain
4:45 PM 51.8 °F - 39.2 °F 62% 29.71 in 10.0 mi WNW 12.7 mph 28.8 mph N/A   Mostly Cloudy
5:45 PM 46.4 °F 38.5 °F 35.6 °F 66% 29.79 in 10.0 mi NW 21.9 mph 31.1 mph N/A   Overcast
6:50 PM 44.6 °F 38.1 °F 33.8 °F 66% 29.86 in 10.0 mi NW 13.8 mph 20.7 mph N/A   Overcast
7:55 PM 41.0 °F 33.1 °F 32.0 °F 70% 29.90 in 10.0 mi NW 15.0 mph 20.7 mph N/A   Overcast
8:15 PM 39.2 °F 30.2 °F 32.0 °F 75% 29.92 in 10.0 mi NW 17.3 mph 24.2 mph N/A   Scattered Clouds
8:35 PM 39.2 °F 29.8 °F 30.2 °F 70% 29.94 in 10.0 mi NW 18.4 mph 25.3 mph N/A   Mostly Cloudy
8:45 PM 39.2 °F 29.6 °F 30.2 °F 70% 29.93 in 10.0 mi NW 19.6 mph 25.3 mph N/A   Overcast
8:55 PM 39.2 °F 32.0 °F 30.2 °F 70% 29.95 in 10.0 mi NW 11.5 mph 24.2 mph N/A   Overcast
9:15 PM 39.2 °F 30.8 °F 30.2 °F 70% 29.97 in 10.0 mi NW 15.0 mph 25.3 mph N/A   Overcast
9:35 PM 39.2 °F 31.2 °F 28.4 °F 65% 29.98 in 10.0 mi NW 13.8 mph 27.6 mph N/A   Overcast
9:55 PM 37.4 °F 27.8 °F 28.4 °F 70% 30.00 in 10.0 mi NW 17.3 mph 27.6 mph N/A   Overcast
10:15 PM 37.4 °F 27.8 °F 26.6 °F 65% 30.01 in 10.0 mi NW 17.3 mph 26.5 mph N/A   Overcast
10:35 PM 35.6 °F 28.0 °F 26.6 °F 70% 30.03 in 10.0 mi WNW 10.4 mph 20.7 mph N/A   Overcast
10:55 PM 35.6 °F 27.1 °F 24.8 °F 65% 30.05 in 10.0 mi WNW 12.7 mph 24.2 mph N/A   Overcast
11:15 PM 33.8 °F 27.7 °F 24.8 °F 70% 30.06 in 10.0 mi WNW 6.9 mph 17.3 mph N/A   Overcast
11:35 PM 32.0 °F 24.8 °F 24.8 °F 75% 30.08 in 10.0 mi WNW 8.1 mph 16.1 mph N/A   Mostly Cloudy
11:55 PM 32.0 °F 24.2 °F 24.8 °F 75% 30.09 in 10.0 mi WNW 9.2 mph 23.0 mph N/A   Partly Cloudy